| time (UTC) | temp F | wind direction | speed knots | gust knots | rain 1hr in | rain 24hr in | rain mn in | humidity % | barometer mb |
| 20260505124611 | 36 | 145 | 3.5 | 7.0 | 0.00 | 0.00 | 0.00 | 83 | 1014.8 |
| 20260505123609 | 36 | 129 | 3.5 | 8.7 | 0.00 | 0.00 | 0.00 | 82 | 1014.8 |
| 20260505122610 | 35 | 122 | 2.6 | 7.0 | 0.00 | 0.00 | 0.00 | 82 | 1014.6 |
| 20260505121603 | 35 | 141 | 3.5 | 8.7 | 0.00 | 0.00 | 0.00 | 82 | 1014.4 |
| 20260505120603 | 36 | 154 | 3.5 | 8.7 | 0.00 | 0.00 | 0.00 | 82 | 1014.3 |
| 20260505115602 | 36 | 145 | 3.5 | 8.7 | 0.00 | 0.00 | 0.00 | 82 | 1014.1 |
| 20260505114603 | 36 | 133 | 2.6 | 7.0 | 0.00 | 0.00 | 0.00 | 82 | 1014.1 |
| 20260505113605 | 36 | 197 | 3.5 | 7.0 | 0.00 | 0.00 | 0.00 | 82 | 1014.1 |
| 20260505112604 | 36 | 147 | 3.5 | 7.8 | 0.00 | 0.00 | 0.00 | 83 | 1014.1 |
| 20260505111603 | 36 | 156 | 3.5 | 7.8 | 0.00 | 0.00 | 0.00 | 84 | 1014.1 |
| 20260505110603 | 36 | 147 | 2.6 | 5.2 | 0.00 | 0.00 | 0.00 | 85 | 1014.4 |
| 20260505101604 | 38 | 174 | 2.6 | 6.1 | 0.00 | 0.00 | 0.00 | 88 | 1014.5 |
| 20260505100604 | 37 | 126 | 2.6 | 5.2 | 0.00 | 0.00 | 0.00 | 89 | 1014.8 |
| 20260505095604 | 38 | 125 | 3.5 | 7.0 | 0.00 | 0.00 | 0.00 | 89 | 1014.8 |
| 20260505094603 | 38 | 165 | 2.6 | 7.8 | 0.00 | 0.00 | 0.00 | 87 | 1014.5 |
| 20260505094040 | 38 | 139 | 1.7 | 5.2 | 0.00 | 0.00 | 0.00 | 88 | 1014.9 |
| 20260505093505 | 38 | 147 | 0.9 | 4.3 | 0.00 | 0.00 | 0.00 | 88 | 1014.8 |
| 20260505091601 | 38 | 142 | 0.9 | 3.5 | 0.00 | 0.00 | 0.00 | 88 | 1014.8 |
| 20260505091035 | 38 | 222 | 0.0 | 0.0 | 0.00 | 0.00 | 0.00 | 89 | 1014.9 |
| 20260505085600 | 38 | 222 | 0.0 | 0.0 | 0.00 | 0.00 | 0.00 | 89 | 1014.9 |
| 20260505084600 | 38 | 223 | 0.9 | 1.7 | 0.00 | 0.00 | 0.00 | 89 | 1014.8 |
| 20260505083601 | 38 | 243 | 0.9 | 3.5 | 0.00 | 0.00 | 0.00 | 89 | 1014.9 |
| 20260505082601 | 38 | 197 | 0.0 | 1.7 | 0.00 | 0.00 | 0.00 | 87 | 1015.0 |
| 20260505081559 | 38 | 252 | 0.0 | 0.0 | 0.00 | 0.00 | 0.00 | 88 | 1015.2 |
| 20260505080609 | 38 | 251 | 0.0 | 0.0 | 0.00 | 0.00 | 0.00 | 88 | 1015.2 |
| 20260505080106 | 38 | 251 | 0.0 | 0.0 | 0.00 | 0.00 | 0.00 | 88 | 1015.3 |
| 20260505074604 | 38 | 250 | 0.0 | 0.0 | 0.00 | 0.00 | 0.00 | 88 | 1015.4 |
| 20260505074047 | 38 | 251 | 0.0 | 0.0 | 0.00 | 0.00 | 0.00 | 88 | 1015.6 |
| 20260505072602 | 38 | 251 | 0.0 | 0.0 | 0.00 | 0.00 | 0.00 | 88 | 1015.6 |
| 20260505071600 | 38 | 251 | 0.0 | 0.0 | 0.00 | 0.00 | 0.00 | 88 | 1015.7 |
| 20260505070556 | 38 | 251 | 0.0 | 0.0 | 0.00 | 0.00 | 0.00 | 87 | 1015.6 |
| 20260505065555 | 38 | 251 | 0.0 | 0.9 | 0.00 | 0.00 | 0.00 | 86 | 1015.4 |
| 20260505064554 | 38 | 251 | 0.0 | 0.9 | 0.00 | 0.00 | 0.00 | 86 | 1015.6 |
| 20260505063552 | 39 | 251 | 0.0 | 0.0 | 0.00 | 0.00 | 0.00 | 86 | 1015.4 |
| 20260505062552 | 39 | 251 | 0.0 | 1.7 | 0.00 | 0.00 | 0.00 | 86 | 1015.8 |
| 20260505061552 | 39 | 251 | 0.9 | 2.6 | 0.00 | 0.00 | 0.00 | 86 | 1015.7 |
| 20260505060550 | 39 | 272 | 0.9 | 3.5 | 0.00 | 0.00 | 0.00 | 84 | 1016.1 |
| 20260505055549 | 39 | 284 | 0.9 | 3.5 | 0.00 | 0.00 | 0.00 | 82 | 1016.1 |
| 20260505054549 | 40 | 316 | 1.7 | 5.2 | 0.00 | 0.00 | 0.00 | 80 | 1016.1 |
| 20260505053549 | 40 | 259 | 1.7 | 5.2 | 0.00 | 0.00 | 0.00 | 78 | 1016.1 |
| 20260505052549 | 40 | 262 | 0.9 | 3.5 | 0.00 | 0.00 | 0.00 | 76 | 1016.1 |
| 20260505051547 | 40 | 274 | 0.0 | 0.0 | 0.00 | 0.00 | 0.00 | 76 | 1015.8 |
| 20260505050548 | 40 | 272 | 0.0 | 0.0 | 0.00 | 0.00 | 0.00 | 76 | 1015.7 |
| 20260505041038 | 41 | 209 | 0.0 | 0.9 | 0.00 | 0.00 | 0.00 | 74 | 1015.6 |
| 20260505035540 | 41 | 209 | 0.9 | 2.6 | 0.00 | 0.00 | 0.00 | 73 | 1015.6 |
| 20260505034540 | 41 | 197 | 1.7 | 4.3 | 0.00 | 0.00 | 0.00 | 73 | 1015.2 |
| 20260505033544 | 41 | 162 | 1.7 | 5.2 | 0.00 | 0.00 | 0.00 | 72 | 1015.2 |
| 20260505032540 | 41 | 154 | 0.9 | 2.6 | 0.00 | 0.00 | 0.00 | 72 | 1014.9 |
| 20260505031540 | 41 | 149 | 0.9 | 1.7 | 0.00 | 0.00 | 0.00 | 71 | 1014.6 |
| 20260505030540 | 42 | 130 | 0.9 | 3.5 | 0.00 | 0.00 | 0.00 | 71 | 1014.8 |
| 20260505025543 | 42 | 112 | 1.7 | 4.3 | 0.00 | 0.00 | 0.00 | 70 | 1014.5 |
| 20260505024541 | 42 | 227 | 1.7 | 4.3 | 0.00 | 0.00 | 0.00 | 69 | 1014.6 |
| 20260505023541 | 43 | 198 | 2.6 | 7.8 | 0.00 | 0.00 | 0.00 | 67 | 1014.6 |
| 20260505023033 | 43 | 197 | 2.6 | 7.0 | 0.00 | 0.00 | 0.00 | 67 | 1014.8 |
| 20260505021541 | 43 | 145 | 1.7 | 4.3 | 0.00 | 0.00 | 0.00 | 67 | 1014.5 |
| 20260505020540 | 43 | 152 | 2.6 | 7.8 | 0.00 | 0.00 | 0.00 | 67 | 1014.5 |
| 20260505015541 | 43 | 163 | 2.6 | 7.8 | 0.00 | 0.00 | 0.00 | 67 | 1014.6 |
| 20260505014540 | 43 | 171 | 2.6 | 6.1 | 0.00 | 0.00 | 0.00 | 67 | 1014.9 |
| 20260505014022 | 43 | 156 | 2.6 | 7.8 | 0.00 | 0.00 | 0.00 | 67 | 1014.4 |
| 20260505012535 | 44 | 228 | 4.3 | 11.3 | 0.00 | 0.00 | 0.00 | 66 | 1014.5 |
| 20260505011536 | 46 | 102 | 4.3 | 11.3 | 0.00 | 0.00 | 0.00 | 61 | 1014.5 |
| 20260505011020 | 48 | 192 | 3.5 | 8.7 | 0.00 | 0.00 | 0.00 | 56 | 1014.1 |
| 20260505005535 | 49 | 166 | 2.6 | 7.0 | 0.00 | 0.00 | 0.00 | 54 | 1014.0 |
| 20260505004534 | 49 | 210 | 0.9 | 6.1 | 0.00 | 0.00 | 0.00 | 57 | 1014.3 |
| 20260505003534 | 48 | 175 | 0.0 | 2.6 | 0.00 | 0.00 | 0.00 | 62 | 1013.9 |
| 20260505002534 | 48 | 241 | 0.0 | 2.6 | 0.00 | 0.00 | 0.00 | 63 | 1014.0 |
| 20260505001532 | 48 | 276 | 0.9 | 2.6 | 0.00 | 0.00 | 0.00 | 62 | 1013.9 |
| 20260505000534 | 50 | 142 | 0.9 | 4.3 | 0.00 | 0.00 | 0.00 | 59 | 1014.1 |
| 20260504235533 | 52 | 168 | 1.7 | 8.7 | 0.00 | 0.00 | 0.00 | 53 | 1014.5 |
| 20260504234532 | 53 | 172 | 1.7 | 4.3 | 0.00 | 0.00 | 0.00 | 44 | 1013.9 |
| 20260504234022 | 54 | 270 | 1.7 | 7.8 | 0.00 | 0.00 | 0.00 | 42 | 1013.5 |
| 20260504232533 | 55 | 134 | 1.7 | 6.1 | 0.00 | 0.00 | 0.00 | 39 | 1013.4 |
| 20260504231532 | 57 | 192 | 1.7 | 7.0 | 0.00 | 0.00 | 0.00 | 37 | 1013.1 |
| 20260504231015 | 57 | 166 | 1.7 | 7.8 | 0.00 | 0.00 | 0.00 | 38 | 1013.1 |
| 20260504225532 | 57 | 325 | 2.6 | 7.0 | 0.00 | 0.00 | 0.00 | 41 | 1013.1 |
| 20260504224531 | 56 | 354 | 1.7 | 7.0 | 0.00 | 0.00 | 0.00 | 41 | 1013.4 |
| 20260504223530 | 55 | 39 | 0.9 | 4.3 | 0.00 | 0.00 | 0.00 | 42 | 1013.5 |
| 20260504222530 | 54 | 107 | 2.6 | 6.1 | 0.00 | 0.00 | 0.00 | 42 | 1013.5 |
| 20260504221530 | 55 | 178 | 0.9 | 3.5 | 0.00 | 0.00 | 0.00 | 40 | 1013.6 |
| 20260504220530 | 56 | 173 | 1.7 | 4.3 | 0.00 | 0.00 | 0.00 | 38 | 1013.5 |
| 20260504215530 | 58 | 232 | 2.6 | 9.6 | 0.00 | 0.00 | 0.00 | 37 | 1013.9 |
| 20260504214530 | 59 | 22 | 2.6 | 9.6 | 0.00 | 0.00 | 0.00 | 35 | 1013.6 |
| 20260504213530 | 61 | 145 | 1.7 | 7.0 | 0.00 | 0.00 | 0.00 | 29 | 1013.5 |
| 20260504212530 | 60 | 210 | 2.6 | 7.8 | 0.00 | 0.00 | 0.00 | 31 | 1013.4 |
| 20260504211530 | 61 | 186 | 1.7 | 7.0 | 0.00 | 0.00 | 0.00 | 29 | 1013.4 |
| 20260504210530 | 61 | 255 | 3.5 | 9.6 | 0.00 | 0.00 | 0.00 | 30 | 1013.7 |
| 20260504205531 | 62 | 332 | 2.6 | 14.8 | 0.00 | 0.00 | 0.00 | 29 | 1013.7 |
| 20260504204530 | 62 | 199 | 2.6 | 8.7 | 0.00 | 0.00 | 0.00 | 30 | 1014.0 |
| 20260504203530 | 61 | 154 | 3.5 | 11.3 | 0.00 | 0.00 | 0.00 | 29 | 1014.0 |
| 20260504202530 | 63 | 125 | 2.6 | 7.0 | 0.00 | 0.00 | 0.00 | 29 | 1014.1 |
| 20260504201530 | 61 | 322 | 2.6 | 7.8 | 0.00 | 0.00 | 0.00 | 32 | 1014.3 |
| 20260504200530 | 59 | 214 | 2.6 | 7.0 | 0.00 | 0.00 | 0.00 | 33 | 1014.1 |
| 20260504195530 | 58 | 152 | 2.6 | 9.6 | 0.00 | 0.00 | 0.00 | 32 | 1014.4 |
| 20260504194530 | 58 | 239 | 2.6 | 6.1 | 0.00 | 0.00 | 0.00 | 32 | 1014.6 |
| 20260504194450 | 57 | 252 | 1.7 | 6.1 | 0.00 | 0.00 | 0.00 | 34 | 1015.2 |
| 20260504192530 | 58 | 258 | 2.6 | 8.7 | 0.00 | 0.00 | 0.00 | 34 | 1015.6 |
| 20260504191530 | 60 | 281 | 2.6 | 10.4 | 0.00 | 0.00 | 0.00 | 27 | 1015.0 |
| 20260504190529 | 60 | 258 | 2.6 | 7.8 | 0.00 | 0.00 | 0.00 | 28 | 1014.9 |
| 20260504185530 | 60 | 91 | 2.6 | 7.8 | 0.00 | 0.00 | 0.00 | 24 | 1014.9 |
| 20260504184529 | 61 | 30 | 1.7 | 5.2 | 0.00 | 0.00 | 0.00 | 28 | 1014.8 |
| 20260504184505 | 60 | 221 | 5.2 | 13.0 | 0.00 | 0.00 | 0.00 | 29 | 1014.8 |
| 20260504182530 | 60 | 94 | 3.5 | 12.2 | 0.00 | 0.00 | 0.00 | 27 | 1014.8 |
| 20260504181532 | 60 | 119 | 1.7 | 7.0 | 0.00 | 0.00 | 0.00 | 26 | 1015.2 |
| 20260504180530 | 59 | 192 | 1.7 | 2.6 | 0.00 | 0.00 | 0.00 | 28 | 1015.7 |
| 20260504175529 | 60 | 139 | 2.6 | 6.1 | 0.00 | 0.00 | 0.00 | 28 | 1015.6 |
| 20260504174528 | 60 | 95 | 2.6 | 10.4 | 0.00 | 0.00 | 0.00 | 27 | 1015.7 |
| 20260504173528 | 59 | 108 | 2.6 | 7.8 | 0.00 | 0.00 | 0.00 | 30 | 1015.8 |
| 20260504172527 | 60 | 137 | 2.6 | 8.7 | 0.00 | 0.00 | 0.00 | 31 | 1016.2 |
| 20260504171528 | 59 | 103 | 3.5 | 10.4 | 0.00 | 0.00 | 0.00 | 33 | 1016.1 |
| 20260504170530 | 59 | 282 | 2.6 | 8.7 | 0.00 | 0.00 | 0.00 | 35 | 1016.2 |
| 20260504150519 | 55 | 231 | 2.6 | 12.2 | 0.00 | 0.00 | 0.00 | 39 | 1016.5 |
| 20260504140517 | 47 | 354 | 0.0 | 1.7 | 0.00 | 0.00 | 0.00 | 50 | 1015.9 |